Voltar ao catálogo

STARLINK-11163

AtivoComunicaçõesVLEO
NORAD 60047·PAYLOAD·🇺🇸 United States

Lançado Jun 8, 2024 de Vandenberg Space Force Base

Loading…

Próximas Passagens (próximas 24 horas)

TLE

AtualizadoSource: CelesTrak SupGP

Época: Sep 14, 2026, 22:13 UTC

1 60047C 24112K   26257.92618056  .00090912  00000+0  75041-3 0  2573
2 60047  53.1571  53.2206 0001069  81.5743 335.7025 15.69614536    15

Acompanhe STARLINK-11163 em tempo real com AllMySat

Download on the App Store